QPF
0.00 0.00 0.00 0.01 0.01 0.01 0.01 0.01 0.01 0.01 0.01 0.01 0.02 0.02 0.03 0.03 0.03 0.05 0.08 0.06 0.06 0.08 0.09 0.08 0.06 0.05 0.05 0.06 0.05 0.05 0.06 0.07 0.06 0.04 0.04 0.03 0.03 0.04 0.04 0.05 0.05 0.06 0.07
0.00 0.00 0.00 0.01 0.01 0.02 0.01 0.02 0.01 0.00 0.00 0.00 0.02 0.02 0.03 0.03 0.03 0.07 0.10 0.08 0.06 0.06 0.06 0.05 0.04 0.04 0.06 0.06 0.06 0.05 0.06 0.06 0.05 0.05 0.05 0.05 0.05 0.04 0.04 0.04 0.04 0.04 0.05
0.00 0.00 0.00 0.00 0.01 0.01 0.01 0.01 0.00 0.00 0.00 0.01 0.02 0.03 0.02 0.04 0.05 0.09 0.13 0.11 0.07 0.05 0.04 0.04 0.03 0.04 0.05 0.05 0.05 0.05 0.05 0.04 0.04 0.04 0.05 0.08 0.08 0.08 0.08 0.04 0.04 0.04 0.05
0.00 0.00 0.00 0.00 0.00 0.00 0.01 0.01 0.01 0.00 0.01 0.02 0.02 0.02 0.03 0.04 0.05 0.10 0.12 0.08 0.05 0.04 0.04 0.04 0.02 0.03 0.05 0.06 0.05 0.05 0.05 0.04 0.04 0.04 0.05 0.07 0.07 0.05 0.06 0.06 0.06 0.06 0.06
0.00 0.00 0.00 0.00 0.00 0.00 0.00 0.00 0.01 0.01 0.01 0.02 0.02 0.01 0.01 0.02 0.03 0.06 0.06 0.03 0.03 0.04 0.04 0.03 0.02 0.05 0.07 0.06 0.07 0.08 0.06 0.05 0.06 0.06 0.05 0.06 0.06 0.06 0.05 0.05 0.06 0.05 0.06
0.00 0.00 0.00 0.00 0.00 0.01 0.01 0.01 0.01 0.01 0.01 0.02 0.03 0.02 0.01 0.01 0.02 0.03 0.02 0.02 0.02 0.02 0.02 0.02 0.02 0.02 0.04 0.04 0.07 0.09 0.07 0.06 0.06 0.07 0.07 0.08 0.09 0.07 0.05 0.05 0.05 0.05 0.06
0.00 0.00 0.00 0.01 0.01 0.01 0.01 0.01 0.01 0.01 0.01 0.03 0.05 0.02 0.01 0.02 0.02 0.03 0.03 0.02 0.02 0.02 0.02 0.01 0.02 0.03 0.05 0.04 0.05 0.07 0.06 0.06 0.05 0.06 0.09 0.15 0.09 0.06 0.06 0.06 0.06 0.06 0.07
0.00 0.00 0.00 0.01 0.01 0.01 0.01 0.01 0.01 0.01 0.01 0.03 0.04 0.03 0.02 0.03 0.03 0.02 0.02 0.02 0.02 0.03 0.02 0.01 0.01 0.05 0.09 0.04 0.05 0.07 0.04 0.05 0.05 0.07 0.14 0.26 0.15 0.07 0.05 0.05 0.05 0.06 0.07
0.01 0.00 0.00 0.00 0.00 0.01 0.01 0.01 0.01 0.02 0.02 0.02 0.02 0.02 0.02 0.02 0.03 0.02 0.01 0.01 0.01 0.01 0.01 0.01 0.03 0.09 0.09 0.05 0.07 0.07 0.03 0.03 0.05 0.08 0.14 0.27 0.25 0.12 0.05 0.03 0.03 0.04 0.04
0.00 0.00 0.00 0.00 0.00 0.01 0.01 0.01 0.01 0.01 0.02 0.02 0.01 0.01 0.01 0.01 0.01 0.02 0.01 0.01 0.01 0.01 0.01 0.03 0.09 0.15 0.09 0.05 0.08 0.10 0.06 0.03 0.03 0.05 0.11 0.19 0.20 0.12 0.07 0.06 0.05 0.05 0.05
0.01 0.00 0.00 0.01 0.01 0.00 0.00 0.00 0.00 0.01 0.03 0.02 0.01 0.01 0.01 0.00 0.01 0.01 0.01 0.00 0.00 0.00 0.01 0.03 0.09 0.14 0.09 0.07 0.10 0.10 0.05 0.04 0.03 0.04 0.07 0.12 0.17 0.18 0.14 0.10 0.08 0.07 0.08
0.01 0.00 0.00 0.00 0.00 0.01 0.00 0.00 0.00 0.01 0.02 0.01 0.01 0.01 0.01 0.01 0.01 0.01 0.00 0.00 0.00 0.00 0.00 0.01 0.03 0.08 0.11 0.09 0.09 0.07 0.03 0.02 0.02 0.03 0.03 0.06 0.10 0.12 0.13 0.12 0.11 0.11 0.11
0.01 0.00 0.00 0.00 0.00 0.00 0.00 0.00 0.00 0.01 0.02 0.01 0.01 0.01 0.01 0.02 0.02 0.02 0.01 0.00 0.00 0.00 0.00 0.01 0.01 0.01 0.04 0.06 0.06 0.05 0.03 0.01 0.01 0.01 0.01 0.02 0.05 0.07 0.08 0.10 0.10 0.08 0.07
0.00 0.00 0.00 0.00 0.00 0.00 0.00 0.00 0.00 0.01 0.01 0.01 0.01 0.01 0.01 0.01 0.02 0.02 0.01 0.01 0.01 0.01 0.01 0.01 0.01 0.00 0.01 0.01 0.02 0.02 0.03 0.01 0.01 0.01 0.01 0.02 0.02 0.03 0.04 0.05 0.05 0.05 0.05
0.00 0.00 0.00 0.00 0.00 0.00 0.00 0.00 0.00 0.01 0.01 0.01 0.01 0.01 0.00 0.00 0.00 0.00 0.01 0.01 0.01 0.01 0.01 0.01 0.01 0.00 0.00 0.00 0.00 0.01 0.02 0.01 0.01 0.01 0.01 0.01 0.01 0.01 0.01 0.02 0.02 0.02 0.02
0.00 0.00 0.00 0.00 0.00 0.00 0.00 0.00 0.00 0.00 0.01 0.01 0.01 0.00 0.00 0.00 0.00 0.00 0.00 0.00 0.00 0.00 0.01 0.01 0.00 0.00 0.00 0.00 0.00 0.00 0.01 0.01 0.01 0.01 0.01 0.01 0.01 0.01 0.01 0.00 0.00 0.00 0.01
0.00 0.00 0.00 0.00 0.00 0.00 0.00 0.00 0.00 0.00 0.00 0.01 0.01 0.01 0.01 0.00 0.00 0.00 0.00 0.00 0.00 0.00 0.00 0.00 0.00 0.00 0.00 0.00 0.01 0.01 0.01 0.01 0.00 0.00 0.00 0.00 0.00 0.00 0.00 0.00 0.00 0.00 0.00
0.01 0.00 0.00 0.00 0.00 0.01 0.01 0.00 0.00 0.00 0.01 0.01 0.01 0.01 0.01 0.01 0.00 0.00 0.00 0.00 0.00 0.00 0.00 0.01 0.00 0.00 0.00 0.00 0.00 0.01 0.01 0.01 0.00 0.00 0.00 0.01 0.00 0.00 0.00 0.00 0.00 0.00 0.00
0.01 0.01 0.00 0.01 0.01 0.01 0.01 0.01 0.00 0.00 0.00 0.01 0.01 0.01 0.01 0.01 0.00 0.00 0.00 0.00 0.00 0.00 0.00 0.00 0.00 0.00 0.00 0.00 0.00 0.00 0.00 0.00 0.00 0.00 0.00 0.00 0.00 0.00 0.00 0.00 0.00 0.00 0.00
0.01 0.01 0.01 0.01 0.01 0.02 0.01 0.01 0.01 0.01 0.00 0.00 0.00 0.01 0.01 0.00 0.00 0.00 0.00 0.00 0.00 0.00 0.00 0.00 0.00 0.00 0.00 0.00 0.00 0.00 0.00 0.00 0.00 0.00 0.00 0.00 0.00 0.00 0.00 0.00 0.00 0.00 0.00
0.01 0.01 0.00 0.00 0.00 0.01 0.01 0.01 0.01 0.01 0.01 0.01 0.01 0.01 0.01 0.00 0.00 0.00 0.00 0.00 0.00 0.00 0.00 0.00 0.00 0.00 0.00 0.00 0.00 0.00 0.00 0.00 0.00 0.00 0.00 0.00 0.00 0.00 0.00 0.00 0.00 0.00 0.00
0.01 0.01 0.00 0.00 0.00 0.01 0.01 0.01 0.00 0.00 0.00 0.00 0.01 0.01 0.01 0.01 0.01 0.01 0.00 0.00 0.00 0.00 0.00 0.00 0.00 0.00 0.00 0.00 0.00 0.00 0.00 0.00 0.00 0.00 0.00 0.00 0.00 0.00 0.00 0.00 0.00 0.00 0.00
0.01 0.00 0.00 0.00 0.00 0.01 0.01 0.01 0.00 0.00 0.00 0.00 0.00 0.00 0.00 0.00 0.01 0.01 0.01 0.00 0.00 0.00 0.00 0.00 0.00 0.00 0.00 0.00 0.00 0.00 0.00 0.00 0.00 0.00 0.00 0.00 0.00 0.00 0.00 0.00 0.00 0.00 0.00
0.01 0.01 0.00 0.00 0.00 0.00 0.00 0.00 0.00 0.00 0.00 0.00 0.00 0.00 0.00 0.00 0.00 0.01 0.01 0.01 0.01 0.00 0.00 0.00 0.00 0.00 0.00 0.00 0.00 0.00 0.00 0.00 0.00 0.00 0.00 0.00 0.00 0.00 0.00 0.00 0.00 0.00 0.00
0.01 0.00 0.00 0.00 0.00 0.00 0.00 0.00 0.00 0.00 0.00 0.00 0.00 0.00 0.00 0.00 0.01 0.01 0.01 0.01 0.01 0.00 0.00 0.00 0.00 0.00 0.00 0.00 0.00 0.00 0.00 0.00 0.00 0.00 0.00 0.00 0.00 0.00 0.00 0.00 0.00 0.00 0.00
0.01 0.00 0.00 0.00 0.00 0.00 0.00 0.00 0.00 0.00 0.00 0.00 0.00 0.00 0.01 0.01 0.01 0.01 0.01 0.02 0.01 0.00 0.00 0.00 0.00 0.00 0.00 0.00 0.00 0.00 0.00 0.00 0.00 0.00 0.00 0.00 0.00 0.00 0.00 0.00 0.00 0.00 0.00
MSLP
1018.03 1017.79 1017.51 1017.24 1016.99 1016.80 1016.69 1016.66 1016.70 1016.78 1016.86 1016.91 1016.92 1016.90 1016.85 1016.81 1016.80 1016.85 1016.95 1017.09 1017.24 1017.38 1017.48 1017.52 1017.51 1017.48 1017.44 1017.44 1017.49 1017.61 1017.78 1017.99 1018.20 1018.39 1018.54 1018.62 1018.66 1018.65 1018.63 1018.61 1018.59 1018.58 1018.58
1018.35 1018.09 1017.80 1017.51 1017.27 1017.10 1017.02 1017.03 1017.13 1017.27 1017.43 1017.56 1017.66 1017.70 1017.70 1017.69 1017.67 1017.68 1017.71 1017.77 1017.83 1017.88 1017.91 1017.90 1017.87 1017.83 1017.81 1017.82 1017.89 1018.01 1018.18 1018.37 1018.56 1018.72 1018.84 1018.90 1018.93 1018.92 1018.89 1018.87 1018.85 1018.84 1018.82
1018.72 1018.45 1018.16 1017.88 1017.65 1017.51 1017.47 1017.53 1017.68 1017.90 1018.14 1018.37 1018.56 1018.69 1018.76 1018.79 1018.78 1018.76 1018.73 1018.70 1018.66 1018.61 1018.54 1018.46 1018.37 1018.30 1018.27 1018.29 1018.36 1018.48 1018.64 1018.82 1018.99 1019.13 1019.23 1019.28 1019.29 1019.28 1019.25 1019.23 1019.21 1019.19 1019.17
1019.12 1018.85 1018.57 1018.31 1018.10 1017.98 1017.97 1018.07 1018.27 1018.55 1018.88 1019.20 1019.49 1019.73 1019.90 1020.00 1020.03 1020.01 1019.94 1019.84 1019.70 1019.54 1019.36 1019.19 1019.03 1018.92 1018.86 1018.86 1018.92 1019.04 1019.19 1019.36 1019.51 1019.63 1019.71 1019.75 1019.76 1019.74 1019.73 1019.71 1019.70 1019.68 1019.65
1019.55 1019.29 1019.02 1018.77 1018.58 1018.47 1018.48 1018.60 1018.83 1019.15 1019.53 1019.94 1020.33 1020.68 1020.96 1021.16 1021.27 1021.28 1021.22 1021.07 1020.87 1020.62 1020.35 1020.09 1019.85 1019.68 1019.57 1019.54 1019.59 1019.70 1019.84 1019.99 1020.12 1020.23 1020.29 1020.32 1020.33 1020.32 1020.31 1020.31 1020.30 1020.28 1020.25
1020.00 1019.74 1019.48 1019.25 1019.06 1018.96 1018.96 1019.07 1019.30 1019.63 1020.05 1020.51 1020.99 1021.44 1021.84 1022.15 1022.37 1022.46 1022.44 1022.30 1022.07 1021.77 1021.44 1021.10 1020.80 1020.57 1020.42 1020.36 1020.38 1020.46 1020.59 1020.72 1020.83 1020.92 1020.97 1020.99 1020.99 1020.99 1020.98 1020.99 1020.99 1020.98 1020.95
1020.48 1020.23 1019.98 1019.75 1019.56 1019.44 1019.41 1019.49 1019.68 1019.99 1020.40 1020.89 1021.42 1021.96 1022.47 1022.91 1023.24 1023.45 1023.51 1023.43 1023.22 1022.92 1022.56 1022.18 1021.84 1021.56 1021.37 1021.28 1021.28 1021.34 1021.44 1021.55 1021.64 1021.70 1021.73 1021.73 1021.72 1021.71 1021.71 1021.72 1021.72 1021.72 1021.68
1020.99 1020.75 1020.51 1020.28 1020.09 1019.95 1019.88 1019.90 1020.03 1020.28 1020.65 1021.12 1021.67 1022.26 1022.86 1023.41 1023.87 1024.20 1024.37 1024.38 1024.24 1023.97 1023.63 1023.26 1022.91 1022.61 1022.41 1022.30 1022.27 1022.31 1022.38 1022.46 1022.52 1022.55 1022.55 1022.52 1022.49 1022.46 1022.45 1022.44 1022.44 1022.44 1022.40
1021.54 1021.32 1021.09 1020.88 1020.68 1020.52 1020.41 1020.36 1020.41 1020.58 1020.87 1021.29 1021.82 1022.43 1023.07 1023.70 1024.27 1024.71 1025.00 1025.12 1025.07 1024.88 1024.60 1024.27 1023.95 1023.67 1023.47 1023.35 1023.32 1023.34 1023.38 1023.43 1023.46 1023.45 1023.40 1023.34 1023.27 1023.21 1023.16 1023.13 1023.12 1023.09 1023.05
1022.12 1021.92 1021.73 1021.53 1021.35 1021.17 1021.03 1020.93 1020.90 1020.98 1021.18 1021.52 1021.98 1022.56 1023.21 1023.87 1024.50 1025.03 1025.42 1025.65 1025.71 1025.62 1025.43 1025.17 1024.90 1024.67 1024.49 1024.39 1024.36 1024.37 1024.40 1024.42 1024.40 1024.35 1024.27 1024.15 1024.03 1023.93 1023.84 1023.77 1023.72 1023.67 1023.60
1022.71 1022.55 1022.39 1022.24 1022.08 1021.92 1021.76 1021.62 1021.53 1021.52 1021.63 1021.87 1022.25 1022.76 1023.36 1024.01 1024.66 1025.23 1025.69 1026.01 1026.17 1026.18 1026.08 1025.91 1025.72 1025.55 1025.43 1025.36 1025.34 1025.35 1025.37 1025.36 1025.32 1025.23 1025.10 1024.94 1024.77 1024.62 1024.48 1024.36 1024.27 1024.18 1024.08
1023.28 1023.16 1023.06 1022.95 1022.84 1022.72 1022.57 1022.43 1022.30 1022.23 1022.25 1022.39 1022.67 1023.08 1023.60 1024.19 1024.81 1025.39 1025.87 1026.24 1026.47 1026.57 1026.57 1026.49 1026.39 1026.29 1026.22 1026.20 1026.20 1026.23 1026.24 1026.23 1026.16 1026.05 1025.88 1025.69 1025.48 1025.28 1025.09 1024.93 1024.79 1024.66 1024.52
1023.80 1023.73 1023.69 1023.65 1023.60 1023.53 1023.43 1023.30 1023.16 1023.06 1023.01 1023.07 1023.24 1023.54 1023.96 1024.46 1025.01 1025.54 1026.02 1026.40 1026.67 1026.83 1026.90 1026.91 1026.88 1026.86 1026.85 1026.87 1026.91 1026.95 1026.97 1026.96 1026.89 1026.76 1026.59 1026.38 1026.15 1025.92 1025.70 1025.50 1025.32 1025.14 1024.97
1024.26 1024.24 1024.25 1024.28 1024.31 1024.30 1024.26 1024.18 1024.07 1023.95 1023.87 1023.86 1023.95 1024.14 1024.45 1024.84 1025.29 1025.74 1026.17 1026.53 1026.81 1027.00 1027.12 1027.19 1027.23 1027.26 1027.31 1027.37 1027.44 1027.50 1027.54 1027.53 1027.47 1027.35 1027.19 1026.98 1026.76 1026.53 1026.30 1026.09 1025.88 1025.68 1025.46
1024.67 1024.69 1024.75 1024.84 1024.94 1025.01 1025.04 1025.02 1024.95 1024.85 1024.77 1024.72 1024.73 1024.84 1025.04 1025.32 1025.65 1026.02 1026.37 1026.68 1026.94 1027.14 1027.28 1027.39 1027.47 1027.55 1027.63 1027.72 1027.81 1027.89 1027.94 1027.95 1027.90 1027.81 1027.67 1027.49 1027.30 1027.09 1026.89 1026.68 1026.47 1026.25 1026.01
1025.03 1025.09 1025.20 1025.34 1025.49 1025.63 1025.73 1025.77 1025.76 1025.71 1025.64 1025.57 1025.55 1025.59 1025.70 1025.88 1026.12 1026.38 1026.65 1026.90 1027.12 1027.30 1027.44 1027.56 1027.66 1027.76 1027.86 1027.96 1028.06 1028.14 1028.19 1028.21 1028.19 1028.12 1028.02 1027.89 1027.74 1027.58 1027.42 1027.25 1027.06 1026.85 1026.60
1025.39 1025.47 1025.61 1025.78 1025.98 1026.17 1026.33 1026.44 1026.49 1026.48 1026.44 1026.39 1026.36 1026.36 1026.41 1026.51 1026.66 1026.84 1027.03 1027.22 1027.39 1027.54 1027.67 1027.78 1027.88 1027.97 1028.07 1028.16 1028.24 1028.31 1028.35 1028.36 1028.34 1028.30 1028.23 1028.15 1028.06 1027.96 1027.85 1027.73 1027.59 1027.41 1027.17
1025.76 1025.86 1026.01 1026.21 1026.43 1026.66 1026.86 1027.01 1027.11 1027.16 1027.17 1027.14 1027.12 1027.11 1027.13 1027.18 1027.27 1027.38 1027.51 1027.64 1027.77 1027.88 1027.98 1028.08 1028.16 1028.24 1028.31 1028.37 1028.42 1028.46 1028.47 1028.46 1028.43 1028.38 1028.33 1028.28 1028.24 1028.19 1028.15 1028.08 1027.99 1027.85 1027.65
1026.13 1026.25 1026.42 1026.63 1026.86 1027.10 1027.32 1027.51 1027.65 1027.74 1027.79 1027.80 1027.80 1027.80 1027.82 1027.85 1027.91 1027.98 1028.07 1028.16 1028.25 1028.33 1028.41 1028.47 1028.53 1028.58 1028.62 1028.65 1028.65 1028.64 1028.60 1028.55 1028.48 1028.41 1028.36 1028.31 1028.29 1028.28 1028.27 1028.26 1028.21 1028.12 1027.96
1026.48 1026.63 1026.80 1027.01 1027.24 1027.48 1027.71 1027.92 1028.08 1028.21 1028.29 1028.34 1028.38 1028.40 1028.43 1028.47 1028.52 1028.58 1028.65 1028.72 1028.78 1028.85 1028.91 1028.96 1028.99 1029.01 1029.02 1029.00 1028.95 1028.88 1028.78 1028.67 1028.55 1028.44 1028.34 1028.28 1028.24 1028.23 1028.24 1028.25 1028.24 1028.18 1028.06
1026.76 1026.93 1027.12 1027.33 1027.55 1027.78 1028.01 1028.21 1028.39 1028.53 1028.65 1028.74 1028.81 1028.87 1028.93 1028.99 1029.06 1029.12 1029.19 1029.26 1029.33 1029.39 1029.44 1029.48 1029.50 1029.50 1029.47 1029.41 1029.31 1029.18 1029.03 1028.85 1028.67 1028.49 1028.34 1028.22 1028.15 1028.11 1028.10 1028.10 1028.09 1028.06 1027.96
1026.91 1027.11 1027.31 1027.52 1027.74 1027.95 1028.16 1028.36 1028.54 1028.69 1028.83 1028.95 1029.06 1029.16 1029.26 1029.36 1029.46 1029.55 1029.65 1029.73 1029.81 1029.88 1029.94 1029.97 1029.99 1029.98 1029.93 1029.84 1029.72 1029.54 1029.34 1029.10 1028.85 1028.61 1028.39 1028.21 1028.06 1027.96 1027.90 1027.86 1027.83 1027.78 1027.69
1026.88 1027.10 1027.32 1027.53 1027.74 1027.95 1028.14 1028.33 1028.50 1028.66 1028.82 1028.96 1029.11 1029.25 1029.40 1029.54 1029.68 1029.82 1029.95 1030.07 1030.17 1030.26 1030.33 1030.38 1030.41 1030.40 1030.35 1030.25 1030.11 1029.91 1029.68 1029.40 1029.11 1028.81 1028.52 1028.26 1028.04 1027.86 1027.73 1027.62 1027.53 1027.44 1027.32
1026.62 1026.87 1027.11 1027.33 1027.54 1027.74 1027.93 1028.10 1028.27 1028.44 1028.60 1028.77 1028.95 1029.14 1029.33 1029.52 1029.72 1029.90 1030.08 1030.24 1030.38 1030.49 1030.59 1030.66 1030.70 1030.70 1030.66 1030.57 1030.43 1030.24 1030.00 1029.71 1029.40 1029.06 1028.73 1028.41 1028.11 1027.85 1027.62 1027.43 1027.26 1027.09 1026.91
1026.14 1026.42 1026.67 1026.91 1027.13 1027.33 1027.52 1027.69 1027.86 1028.03 1028.21 1028.40 1028.61 1028.84 1029.08 1029.32 1029.57 1029.81 1030.04 1030.24 1030.42 1030.57 1030.69 1030.78 1030.84 1030.86 1030.83 1030.76 1030.64 1030.47 1030.25 1029.98 1029.67 1029.33 1028.97 1028.62 1028.26 1027.93 1027.62 1027.33 1027.06 1026.80 1026.54
1025.46 1025.77 1026.05 1026.31 1026.54 1026.75 1026.94 1027.12 1027.30 1027.48 1027.67 1027.89 1028.13 1028.39 1028.68 1028.98 1029.28 1029.58 1029.85 1030.10 1030.32 1030.51 1030.65 1030.76 1030.83 1030.86 1030.86 1030.81 1030.71 1030.57 1030.38 1030.15 1029.87 1029.56 1029.21 1028.84 1028.46 1028.07 1027.69 1027.31 1026.94 1026.58 1026.23
Thickness
5735 5735 5735 5733 5734 5734 5734 5733 5733 5732 5731 5730 5729 5728 5728 5726 5725 5724 5722 5721 5721 5721 5721 5722 5723 5723 5724 5724 5725 5726 5727 5727 5728 5728 5729 5730 5731 5732 5732 5732 5733 5733 5734
5733 5732 5733 5731 5732 5732 5732 5731 5730 5728 5726 5725 5724 5723 5722 5722 5721 5721 5721 5718 5716 5716 5716 5717 5718 5718 5719 5720 5721 5722 5723 5724 5724 5724 5725 5727 5728 5728 5728 5728 5728 5729 5730
5730 5730 5730 5730 5729 5729 5730 5729 5727 5725 5723 5721 5719 5719 5718 5717 5717 5717 5716 5715 5714 5712 5711 5712 5712 5713 5714 5715 5716 5717 5718 5719 5719 5720 5721 5723 5724 5724 5724 5724 5724 5725 5725
5728 5727 5727 5727 5726 5726 5726 5725 5724 5722 5720 5718 5716 5714 5713 5712 5712 5712 5711 5711 5710 5709 5707 5706 5707 5708 5708 5709 5711 5712 5713 5713 5714 5715 5716 5717 5718 5719 5718 5719 5719 5720 5721
5724 5724 5723 5723 5723 5723 5723 5722 5720 5719 5716 5713 5712 5710 5710 5708 5707 5707 5707 5706 5705 5704 5703 5702 5701 5702 5702 5704 5705 5706 5707 5708 5709 5710 5711 5712 5713 5713 5714 5714 5715 5715 5716
5720 5720 5720 5720 5720 5720 5719 5718 5716 5714 5713 5711 5711 5707 5706 5705 5703 5703 5703 5701 5700 5700 5699 5699 5698 5697 5697 5698 5700 5701 5702 5703 5704 5704 5705 5707 5708 5709 5710 5710 5710 5710 5710
5716 5717 5717 5717 5716 5716 5715 5715 5713 5711 5709 5710 5707 5703 5702 5702 5701 5698 5698 5698 5696 5695 5695 5694 5694 5694 5694 5693 5694 5696 5697 5698 5698 5699 5700 5701 5703 5705 5705 5705 5705 5705 5705
5713 5714 5714 5714 5713 5712 5711 5711 5710 5709 5707 5707 5706 5702 5698 5696 5695 5695 5694 5693 5693 5691 5691 5690 5689 5689 5689 5690 5689 5690 5691 5692 5693 5693 5694 5695 5697 5698 5699 5699 5699 5699 5699
5710 5710 5710 5711 5709 5710 5708 5707 5707 5705 5704 5705 5706 5704 5699 5694 5692 5691 5690 5689 5687 5687 5687 5685 5685 5684 5684 5684 5684 5684 5685 5686 5686 5687 5688 5688 5690 5691 5691 5692 5692 5693 5692
5707 5707 5707 5707 5707 5707 5705 5705 5705 5704 5702 5702 5701 5701 5701 5699 5694 5688 5686 5686 5684 5682 5682 5681 5680 5679 5678 5678 5677 5676 5678 5678 5679 5680 5680 5681 5683 5683 5684 5684 5685 5685 5685
5704 5704 5704 5704 5704 5704 5703 5702 5702 5701 5701 5700 5699 5698 5696 5695 5696 5690 5684 5682 5681 5679 5678 5677 5675 5674 5673 5672 5672 5670 5671 5671 5672 5672 5673 5674 5675 5676 5676 5676 5677 5677 5677
5702 5701 5701 5701 5701 5700 5700 5699 5699 5698 5698 5697 5696 5696 5694 5692 5690 5688 5684 5681 5679 5676 5675 5672 5671 5669 5668 5667 5665 5664 5664 5664 5664 5665 5665 5666 5667 5667 5668 5668 5668 5668 5668
5700 5699 5699 5699 5698 5697 5696 5696 5695 5695 5694 5693 5692 5692 5691 5690 5689 5687 5684 5681 5677 5675 5671 5669 5667 5665 5665 5663 5660 5659 5658 5658 5658 5658 5658 5658 5658 5659 5659 5660 5660 5660 5659
5699 5697 5696 5695 5694 5693 5693 5692 5692 5691 5691 5690 5688 5687 5686 5685 5685 5683 5681 5678 5675 5673 5670 5667 5664 5662 5660 5658 5656 5655 5654 5652 5652 5651 5651 5650 5650 5650 5650 5651 5650 5650 5650
5696 5694 5693 5692 5691 5689 5689 5689 5688 5687 5687 5686 5685 5684 5682 5681 5680 5679 5678 5677 5674 5671 5667 5663 5661 5658 5656 5654 5651 5651 5650 5647 5646 5645 5644 5644 5643 5643 5642 5642 5642 5641 5641
5693 5692 5690 5689 5688 5686 5685 5685 5684 5682 5682 5680 5679 5679 5677 5677 5676 5674 5674 5673 5672 5670 5665 5660 5657 5654 5651 5650 5647 5646 5644 5642 5640 5639 5638 5637 5636 5635 5635 5634 5633 5632 5632
5690 5689 5688 5686 5685 5684 5682 5681 5680 5679 5678 5678 5677 5675 5673 5672 5671 5670 5669 5667 5666 5665 5659 5656 5654 5651 5648 5646 5644 5641 5640 5639 5636 5633 5632 5631 5630 5629 5627 5626 5625 5624 5623
5687 5686 5684 5683 5681 5680 5679 5678 5676 5675 5674 5673 5672 5671 5669 5667 5666 5665 5663 5662 5660 5659 5656 5652 5650 5646 5644 5641 5639 5637 5636 5634 5631 5628 5626 5624 5623 5621 5620 5618 5617 5615 5614
5684 5682 5681 5679 5678 5676 5675 5673 5672 5671 5671 5670 5668 5666 5664 5663 5661 5660 5658 5657 5655 5653 5650 5648 5645 5641 5639 5636 5634 5632 5631 5628 5627 5624 5620 5618 5616 5614 5612 5610 5608 5606 5604
5681 5679 5677 5676 5674 5672 5671 5670 5669 5667 5666 5664 5663 5662 5660 5659 5657 5656 5654 5652 5650 5648 5645 5643 5639 5636 5633 5631 5629 5627 5625 5623 5621 5618 5615 5612 5609 5607 5605 5602 5600 5597 5594
5678 5676 5674 5672 5670 5668 5667 5666 5665 5663 5661 5659 5658 5656 5653 5651 5649 5648 5648 5646 5644 5642 5640 5637 5634 5632 5629 5625 5623 5621 5619 5618 5615 5612 5610 5607 5605 5602 5599 5595 5591 5587 5584
5673 5672 5670 5668 5665 5663 5659 5658 5658 5658 5657 5655 5653 5651 5648 5645 5642 5639 5637 5636 5635 5635 5634 5632 5629 5627 5624 5620 5616 5614 5612 5611 5609 5606 5602 5601 5597 5594 5590 5587 5581 5577 5573
5669 5668 5666 5663 5661 5657 5653 5651 5650 5652 5652 5650 5648 5646 5643 5640 5638 5637 5633 5629 5627 5624 5623 5624 5623 5620 5617 5613 5609 5607 5604 5602 5599 5597 5593 5593 5590 5586 5581 5577 5571 5565 5561
5664 5662 5661 5659 5656 5652 5649 5646 5645 5646 5646 5644 5642 5640 5638 5636 5633 5631 5630 5627 5624 5621 5617 5615 5614 5611 5607 5604 5601 5598 5596 5593 5591 5587 5583 5582 5580 5577 5572 5567 5561 5555 5550
5660 5658 5656 5653 5651 5648 5644 5642 5640 5641 5640 5637 5635 5633 5631 5629 5625 5622 5622 5621 5618 5615 5609 5605 5603 5600 5596 5593 5590 5588 5587 5585 5584 5580 5574 5571 5569 5566 5563 5558 5552 5545 5541
5655 5654 5652 5650 5648 5646 5640 5637 5635 5637 5635 5632 5629 5626 5622 5621 5617 5615 5616 5614 5611 5608 5604 5601 5596 5593 5590 5586 5581 5579 5577 5575 5573 5570 5565 5559 5557 5553 5553 5550 5543 5537 5533